CZ-3B DEB, 42471

Orbit data source: Space-Track

CZ-3B DEB, 42471 is space debris in HEO originally from a launch on Mon, 19 Dec 2011 UTC launched from the Xichang Space Center, China (XSC). Debris objects in space refer to the collection of defunct objects orbiting the Earth. Examples of debris include non-operational satellites, rocket bodies, and fragments generated from explosions, collisions, or faulty payload assembly.

Loading next visibility...
Identifier
42471, 2011-077AL
Orbit
HEO
Last TLE update
2 days ago
Origin
Manufacturer
CALT
Mission
Spacecraft
Bus & Motor
Unknown
Mass
Unknown
Launch date (UTC)
2011-12-19 (14 years ago)
Launch vehicle
Unknown
Launch site
Xichang Space Center, China (XSC)
Object type
Payload
Rocket body
Debris
Shape & HBR
Unknown
Radar Cross Section
Medium (>0.1 m² and <1 m²)

Expand to show TLE details & history

TLE from 2 days ago
0 CZ-3B DEB
1 42471U 11077AL  25181.05982403 -.00000292  00000-0 -47216-2 0  9999
2 42471  26.0916  45.0761 7455234 323.5363   3.7391  1.89237310 28021
Epoch: 2025-06-30T01:26Z
TLE epoch observation values (Epoch: 2025-06-30T01:26:08.796Z)
Latitude
0.00258°
Longitude
105.18683°
Altitude
1,328.507 km
Speed
9.434 km/s
True Right ascension
03h 00m 23s
True Declination
0° 00' 09"
Sunlit
Object was in daylight at epoch
Visualization orbit readout
Latitude
26.0569°
Longitude
-160.57026°
Altitude
17,157.899 km
Speed
4.409 km/s
Apparent Right ascension
08h 34m 32s
Apparent Declination
14° 46' 18"
Sunlit
Object is in daylight
Visualization observer readout
Local Sidereal Time
17:01:15
Azimuth
306.132° NW
Elevation
-16.224°
Doppler factor
1
Orbital elements
Apogee altitude
41,822.203 km
Perigee altitude
648.901 km
Semi-major axis
27,613.689 km
Eccentricity
0.74552
Inclination
26.0916°
RAAN
45.0761°
Arg. of periapsis
323.5363°
True anomaly
Unknown
Mean anomaly
3.7391°
Eccentric anomaly
Unknown
Mean motion
0.47299 °/min
Orbital period
761.11 mins
BSTAR
-0.0047216
Loading maneuver chart data...
Loading SW <> Apogee altitude chart data...
Loading historical data...
Loading historical data...
Loading historical data...
Loading historical data...
Loading historical data...
Loading historical data...
Loading historical data...

CZ-3B DEB Visibility forecast

Observer location: undefined°, undefined°

Span
Click to sort rows by Start time (UTC) header in descending order
Start Az.
Max El. time (UTC)
Max El. Az.
Max El.
End time (UTC)
End Az.
704 mins2025-07-02 16:56:41.981Z191.443° SSW2025-07-03 00:50:41.981Z153.429° SSE38.554°2025-07-03 04:40:41.981Z166.435° S
|